Weather History for Omaha Offutt, NE

Change the Weather History Date:

Saturday, July 13, 2013

  Actual Average Record
Temperature  
Mean Temperature 79 °F -  
Max Temperature 87 °F 85 °F 95 °F (1997)
Min Temperature 71 °F 66 °F 48 °F (2008)
Cooling Degree Days 14    
Growing Degree Days 29 (Base 50)    
Moisture  
Dew Point 66 °F    
Average Humidity 67    
Maximum Humidity 73    
Minimum Humidity 60    
Precipitation  
Precipitation 0.00 in - - ()
Sea Level Pressure  
Sea Level Pressure 29.96 in    
Wind  
Wind Speed 11 mph (SE)    
Max Wind Speed 18 mph    
Max Gust Speed -    
Visibility 10 miles    
Events Rain    
Averages and records for this station are not official NWS values.
T = Trace of Precipitation, MM = Missing Value Source: NWS Daily Summary

Daily Weather History Graph

Daily Weather History Graph

Search for Another Location

Airport:

Trip Planner

Search our weather history database for the weather conditions in past years. The results will help you decide how hot, cold, wet, or windy it might be!

Date:

Astronomy

Jul. 13, 2013 Rise Set
Actual Time 6:02 AM CDT 8:55 PM CDT
Civil Twilight 5:29 AM CDT 9:28 PM CDT
Nautical Twilight 4:48 AM CDT 10:09 PM CDT
Astronomical Twilight 4:00 AM CDT 10:57 PM CDT
Moon 11:23 AM CDT (7/13) 11:33 PM CDT (7/13)
Length of Visible Light 15h 58m
Length of Day
14h 53m
Waxing Crescent, 26% of the Moon is Illuminated
Jul 13
Waxing Crescent
Jul 15
First Quarter
Jul 22
Full
Jul 29
Last Quarter
Aug 6
New

Hourly Weather History & Observations

Time (CDT) Temp. Heat Index Dew Point Humidity Pressure Visibility Wind Dir Wind Speed Gust Speed Precip Events Conditions
12:58 AM 76.8 °F - 61.9 °F 60% 29.96 in 10.0 mi ESE 9.2 mph - N/A   Partly Cloudy
1:52 AM 77.0 °F - 62.6 °F 61% 29.98 in 10.0 mi East 6.9 mph - N/A Rain Light Rain
1:58 AM 75.9 °F - 63.0 °F 64% 29.96 in 10.0 mi East 6.9 mph - 0.00 in Rain Light Rain
2:07 AM 75.2 °F - 64.4 °F 69% 29.98 in 10.0 mi East 8.1 mph - N/A   Overcast
2:58 AM 73.9 °F - 63.0 °F 68% 29.96 in 10.0 mi ESE 12.7 mph - 0.00 in   Overcast
3:20 AM 75.2 °F - 62.6 °F 65% 29.98 in 10.0 mi ESE 9.2 mph - N/A   Light Drizzle
3:37 AM 73.4 °F - 62.6 °F 69% 29.97 in 10.0 mi ESE 8.1 mph - N/A   Mostly Cloudy
3:58 AM 74.3 °F - 61.7 °F 65% 29.96 in 10.0 mi SE 10.4 mph - 0.00 in   Scattered Clouds
4:58 AM 73.9 °F - 61.2 °F 64% 29.94 in 10.0 mi SE 8.1 mph - N/A   Mostly Cloudy
5:58 AM 73.4 °F - 60.8 °F 65% 29.96 in 10.0 mi SE 10.4 mph - N/A   Overcast
6:58 AM 73.4 °F - 60.6 °F 64% 29.97 in 10.0 mi ESE 10.4 mph - N/A   Mostly Cloudy
7:58 AM 73.0 °F - 61.0 °F 66% 29.97 in 10.0 mi SE 11.5 mph - N/A   Scattered Clouds
8:40 AM 73.4 °F - 62.6 °F 69% 29.99 in 10.0 mi SE 15.0 mph - N/A   Light Drizzle
8:49 AM 71.6 °F - 62.6 °F 73% 29.98 in 10.0 mi SE 11.5 mph - N/A   Mostly Cloudy
8:58 AM 72.3 °F - 62.6 °F 71% 29.97 in 10.0 mi SSE 10.4 mph - 0.00 in   Mostly Cloudy
9:58 AM 72.1 °F - 63.1 °F 73% 29.98 in 10.0 mi SE 11.5 mph - N/A   Scattered Clouds
10:14 AM 73.4 °F - 64.4 °F 73% 29.99 in 10.0 mi SE 12.7 mph - N/A   Light Drizzle
10:31 AM 75.2 °F - 64.4 °F 69% 29.98 in 10.0 mi SE 12.7 mph - N/A   Partly Cloudy
10:58 AM 75.4 °F - 64.6 °F 69% 29.97 in 10.0 mi SE 12.7 mph - 0.00 in   Scattered Clouds
11:58 AM 76.1 °F - 65.1 °F 69% 29.97 in 10.0 mi SE 12.7 mph - N/A   Partly Cloudy
12:58 PM 82.0 °F 85.1 °F 68.5 °F 63% 29.97 in 10.0 mi ESE 12.7 mph - N/A   Clear
1:58 PM 84.9 °F 89.1 °F 69.6 °F 60% 29.95 in 10.0 mi SE 18.4 mph - N/A   Clear
2:58 PM 86.5 °F 92.5 °F 71.6 °F 61% 29.94 in 10.0 mi SE 16.1 mph - N/A   Clear
3:58 PM 86.5 °F 92.9 °F 72.0 °F 62% 29.93 in 10.0 mi SSE 15.0 mph - N/A   Clear
4:58 PM 87.3 °F 94.5 °F 72.7 °F 62% 29.94 in 10.0 mi SSE 17.3 mph - N/A   Clear
5:58 PM 86.0 °F 93.4 °F 73.4 °F 66% 29.93 in 10.0 mi SE 15.0 mph - N/A   Clear
6:58 PM 84.4 °F 90.0 °F 71.8 °F 66% 29.93 in 10.0 mi SE 15.0 mph - N/A   Clear
7:58 PM 83.3 °F 89.3 °F 72.9 °F 71% 29.93 in 10.0 mi ESE 15.0 mph - N/A   Scattered Clouds
8:55 PM 81.1 °F 85.0 °F 70.9 °F 71% 29.91 in 10.0 mi ESE 17.3 mph - N/A   Mostly Cloudy
9:55 PM 79.2 °F - 68.0 °F 69% 29.96 in 10.0 mi ESE 18.4 mph - N/A   Overcast
10:55 PM 77.7 °F - 67.3 °F 70% 29.94 in 10.0 mi ESE 11.5 mph - N/A   Overcast
11:56 PM 77.0 °F - 66.2 °F 69% 29.99 in 10.0 mi SE 15.0 mph - N/A   Overcast